{"data":{"norad_id":59380,"epoch":"2026-05-25T01:30:49.813920Z","epoch_age_seconds":80181,"freshness":"FRESH","line1":"1 59380U 24062G   26145.06307655 -.00000054  00000+0  95438-5 0  9992","line2":"2 59380  53.1603 263.1128 0001222  84.8368 275.2774 15.34391049121290","mean_motion":15.34391049,"eccentricity":0.0001222,"inclination_deg":53.1603,"raan_deg":263.1128,"arg_perigee_deg":84.8368,"mean_anomaly_deg":275.2774,"bstar":9.5438e-6,"rev_number":12129,"period_min":93.848305550171,"perigee_km":461.89389066637,"apogee_km":463.56579852319,"semimajor_km":6840.8668445948,"source":"CELESTRAK","updated_at":"2026-05-25T13:38:18.914530Z"}}